Date String (YYYY-MM-DD hh:mm:ss) UTC,Instrument flags,absolute air pressure of the measurement (hPa),sample flow rate (lpm),inlet stack bypass flow (lpm),air temperature of the measurement (°C),ambient temperature measured by the external sensor (°C),aerosol sample conditioner tube jacket temperature (°C),OPC LED temperature (°C),internal box temperature (°C),relative humidity of the measurement (%),span deviation,mass concentration of particles derived from Lorenz-Mie calculation of OPC scattering (μg/m³),mass concentration of particles derived from Lorenz-Mie calculation of OPC scattering (μg/m³),mass concentration of particles derived from Lorenz-Mie calculation of OPC scattering (μg/m³)
DateTimeUTC,F1_M11,P_M11,Q1_M11,Q2_M11,T1_M11,T2_M11,T3_M11,T4_M11,T5_M11,U1_M11,ZSPAN_M11,X2_M11,X0_M11,X1_M11
2024-01-30 23:00:00,SystemResetWarning,0833.1,5.00,000.00,026.2,025.4,000.0,034.2,027.7,11.6,0002.5,0004.23,0014.78,0003.78
2024-01-30 23:01:00,SystemResetWarning,0833.2,4.99,000.00,026.2,024.9,000.0,034.2,027.8,11.5,0002.4,0004.25,0014.81,0003.80
2024-01-30 23:02:00,SystemResetWarning,0833.0,4.99,000.00,026.2,023.1,000.0,034.2,027.6,11.6,0002.2,0004.27,0014.52,0003.83
2024-01-30 23:03:00,SystemResetWarning,0833.0,5.01,000.00,026.1,022.6,000.0,034.2,027.5,11.6,0002.4,0004.28,0015.01,0003.84
2024-01-30 23:04:00,SystemResetWarning,0833.0,5.00,000.00,026.0,022.8,000.0,034.1,027.0,11.7,0004.7,0004.29,0015.17,0003.85
2024-01-30 23:05:00,SystemResetWarning,0833.0,5.00,000.00,025.9,023.1,000.0,034.1,027.0,11.9,0005.6,0004.24,0014.77,0003.83
2024-01-30 23:06:00,SystemResetWarning,0833.0,5.00,000.00,025.9,023.5,000.0,034.1,027.0,11.9,0006.0,0004.19,0013.81,0003.82
2024-01-30 23:07:00,SystemResetWarning,0833.0,5.00,000.00,025.9,023.8,000.0,034.1,027.1,11.9,0004.8,0004.19,0013.30,0003.82
2024-01-30 23:08:00,SystemResetWarning,0833.0,5.00,000.00,025.9,024.1,000.0,034.1,027.2,11.9,0003.0,0004.19,0013.19,0003.82
2024-01-30 23:09:00,SystemResetWarning,0833.0,5.00,000.00,025.9,024.3,000.0,034.1,027.3,11.9,0000.0,0004.23,0013.07,0003.84
2024-01-30 23:10:00,SystemResetWarning,0833.0,4.99,000.00,025.9,024.5,000.0,034.1,027.4,11.8,0002.4,0004.24,0014.06,0003.83
2024-01-30 23:11:00,SystemResetWarning,0833.2,5.00,000.00,026.0,024.7,000.0,034.1,027.4,11.8,0009.6,0004.29,0014.60,0003.83
2024-01-30 23:12:00,SystemResetWarning,0833.1,4.99,000.00,026.0,024.9,000.0,034.1,027.5,11.8,0012.0,0004.33,0014.17,0003.83
2024-01-30 23:13:00,SystemResetWarning,0833.3,5.00,000.00,026.0,025.0,000.0,034.1,027.5,11.7,0013.2,0004.36,0014.40,0003.82
2024-01-30 23:14:00,SystemResetWarning,0833.2,5.01,000.00,026.1,025.1,000.0,034.1,027.6,11.9,0012.4,0004.39,0014.18,0003.83
2024-01-30 23:15:00,SystemResetWarning,0833.3,5.00,000.00,026.1,025.2,000.0,034.2,027.6,11.9,0006.2,0004.44,0014.01,0003.84
2024-01-30 23:16:00,SystemResetWarning,0833.1,5.00,000.00,026.1,025.3,000.0,034.2,027.7,11.9,0014.1,0004.47,0013.84,0003.85
2024-01-30 23:17:00,SystemResetWarning,0833.2,5.01,000.00,026.2,025.4,000.0,034.2,027.7,11.9,0008.1,0004.47,0013.55,0003.86
2024-01-30 23:18:00,SystemResetWarning,0833.2,5.01,000.00,026.2,025.4,000.0,034.2,027.8,11.9,-001.7,0004.52,0013.93,0003.89
2024-01-30 23:19:00,SystemResetWarning,0833.4,4.98,000.00,026.2,024.2,000.0,034.2,027.8,11.8,-000.7,0004.55,0014.35,0003.92
2024-01-30 23:20:00,SystemResetWarning,0833.4,5.00,000.00,026.2,022.7,000.0,034.2,027.6,11.9,-000.6,0004.56,0014.34,0003.93
2024-01-30 23:21:00,SystemResetWarning,0833.2,5.02,000.00,026.1,022.6,000.0,034.2,027.3,11.9,-001.0,0004.57,0013.26,0003.95
2024-01-30 23:22:00,SystemResetWarning,0833.2,4.99,000.00,025.9,022.9,000.0,034.2,027.0,12.0,-000.3,0004.61,0011.72,0004.01
2024-01-30 23:23:00,SystemResetWarning,0833.0,5.00,000.00,025.9,023.3,000.0,034.1,027.0,12.1,0001.8,0004.66,0011.56,0004.05
2024-01-30 23:24:00,SystemResetWarning,0833.3,5.00,000.00,025.9,023.6,000.0,034.1,027.1,12.0,0002.7,0004.71,0011.03,0004.10
2024-01-30 23:25:00,SystemResetWarning,0833.4,5.01,000.00,025.9,023.9,000.0,034.1,027.1,12.0,0003.2,0004.74,0010.72,0004.14
2024-01-30 23:26:00,SystemResetWarning,0833.3,4.99,000.00,025.9,024.2,000.0,034.1,027.2,12.0,0003.1,0004.77,0011.19,0004.18
2024-01-30 23:27:00,SystemResetWarning,0833.2,4.99,000.00,025.9,024.4,000.0,034.1,027.3,12.1,0002.8,0004.87,0011.57,0004.25
2024-01-30 23:28:00,SystemResetWarning,0833.1,5.00,000.00,025.9,024.6,000.0,034.1,027.4,12.0,0002.9,0004.94,0011.62,0004.30
2024-01-30 23:29:00,SystemResetWarning,0833.0,5.01,000.00,026.0,024.8,000.0,034.1,027.4,12.1,0002.7,0004.96,0011.71,0004.33
2024-01-30 23:30:00,SystemResetWarning,0833.0,5.00,000.00,026.0,024.9,000.0,034.1,027.5,12.1,0003.0,0004.98,0012.42,0004.35
2024-01-30 23:31:00,SystemResetWarning,0833.1,5.00,000.00,026.0,025.0,000.0,034.1,027.5,12.1,0003.0,0005.01,0012.53,0004.37
2024-01-30 23:32:00,SystemResetWarning,0833.2,5.01,000.00,026.1,025.1,000.0,034.1,027.6,12.1,0003.1,0005.08,0013.19,0004.39
2024-01-30 23:33:00,SystemResetWarning,0833.3,5.00,000.00,026.1,025.2,000.0,034.2,027.6,12.0,0002.3,0005.10,0013.37,0004.39
2024-01-30 23:34:00,SystemResetWarning,0833.3,5.00,000.00,026.1,025.3,000.0,034.2,027.6,12.0,0000.7,0005.04,0013.27,0004.38
2024-01-30 23:35:00,SystemResetWarning,0833.4,5.00,000.00,026.2,025.4,000.0,034.2,027.7,12.0,-000.9,0005.01,0013.22,0004.37
2024-01-30 23:36:00,SystemResetWarning,0833.2,4.99,000.00,026.2,025.1,000.0,034.2,027.7,12.0,-001.3,0004.99,0014.00,0004.36
2024-01-30 23:37:00,SystemResetWarning,0833.1,5.00,000.00,026.2,023.3,000.0,034.2,027.6,12.0,-002.1,0004.98,0014.03,0004.35
2024-01-30 23:38:00,SystemResetWarning,0833.4,5.00,000.00,026.1,022.4,000.0,034.2,027.4,12.0,-001.9,0004.91,0014.68,0004.32
2024-01-30 23:39:00,SystemResetWarning,0833.3,5.02,000.00,026.0,022.6,000.0,034.2,027.0,12.1,-002.0,0004.87,0014.91,0004.29
2024-01-30 23:40:00,SystemResetWarning,0833.5,5.00,000.00,025.8,022.9,000.0,034.1,026.8,12.1,-001.2,0004.86,0014.38,0004.27
2024-01-30 23:41:00,SystemResetWarning,0833.2,5.00,000.00,025.8,023.3,000.0,034.1,026.9,12.2,-001.1,0004.91,0013.53,0004.27
2024-01-30 23:42:00,SystemResetWarning,0833.1,5.00,000.00,025.8,023.6,000.0,034.1,027.0,12.2,-001.3,0004.94,0013.28,0004.30
2024-01-30 23:43:00,SystemResetWarning,0833.1,5.00,000.00,025.8,023.9,000.0,034.0,027.1,12.2,-002.0,0004.95,0013.94,0004.32
2024-01-30 23:44:00,SystemResetWarning,0833.2,4.99,000.00,025.8,024.2,000.0,034.0,027.2,12.1,-001.0,0004.99,0015.52,0004.34
2024-01-30 23:45:00,SystemResetWarning,0833.1,5.00,000.00,025.9,024.4,000.0,034.0,027.3,12.1,-001.3,0004.99,0015.97,0004.36
2024-01-30 23:46:00,SystemResetWarning,0833.2,5.00,000.00,025.9,024.6,000.0,034.0,027.3,12.1,-000.1,0005.04,0016.55,0004.38
2024-01-30 23:47:00,SystemResetWarning,0833.2,5.00,000.00,025.9,024.8,000.0,034.0,027.4,12.1,-000.5,0005.07,0017.12,0004.40
2024-01-30 23:48:00,SystemResetWarning,0833.2,5.00,000.00,026.0,024.9,000.0,034.1,027.4,12.0,-002.1,0005.14,0017.85,0004.45
2024-01-30 23:49:00,SystemResetWarning,0833.2,5.00,000.00,026.0,025.0,000.0,034.1,027.5,12.0,-002.3,0005.23,0017.91,0004.49
2024-01-30 23:50:00,SystemResetWarning,0833.2,5.00,000.00,026.0,025.1,000.0,034.1,027.5,12.0,-001.4,0005.32,0017.82,0004.54
2024-01-30 23:51:00,SystemResetWarning,0833.2,5.00,000.00,026.1,025.2,000.0,034.1,027.6,12.0,-000.2,0005.38,0017.80,0004.59
2024-01-30 23:52:00,SystemResetWarning,0833.2,5.00,000.00,026.1,025.3,000.0,034.1,027.6,11.9,-002.2,0005.44,0018.91,0004.62
2024-01-30 23:53:00,SystemResetWarning,0833.2,4.99,000.00,026.1,025.3,000.0,034.2,027.7,11.9,-004.1,0005.48,0019.99,0004.65
2024-01-30 23:54:00,SystemResetWarning,0833.2,5.00,000.00,026.2,025.3,000.0,034.2,027.7,11.8,-001.3,0005.51,0020.13,0004.67
2024-01-30 23:55:00,SystemResetWarning,0833.2,5.00,000.00,026.1,023.5,000.0,034.2,027.6,11.8,-000.2,0005.52,0019.92,0004.70
2024-01-30 23:56:00,SystemResetWarning,0833.2,5.02,000.00,026.1,022.4,000.0,034.2,027.4,11.8,-001.8,0005.53,0018.98,0004.73
2024-01-30 23:57:00,SystemResetWarning,0833.2,5.01,000.00,025.9,022.5,000.0,034.1,027.0,11.8,-001.8,0005.61,0019.23,0004.76
2024-01-30 23:58:00,SystemResetWarning,0833.2,4.99,000.00,025.8,022.8,000.0,034.1,026.8,11.9,-001.7,0005.63,0019.23,0004.77
2024-01-30 23:59:00,SystemResetWarning,0833.2,5.00,000.00,025.8,023.2,000.0,034.0,026.9,11.9,-001.2,0005.64,0018.09,0004.76
